GSAT-31 (44035 NORAD) Tracking and Keplerian Element Data

This shows tracking and keplerian element data for the satellite.

Feedback or suggestion? Click here.




ElementValue
Catalog44035
NameGSAT-31
Epoch Orbit16
Epoch Day51.85327172
Epoch Year2019
RAAN282.7136
Inclination0.1265
Eccentricity0.0004248
Argument of Perigee25.6732
Mean Anonmoly197.1466
Mean Motion1.00271702
Decay Rate1.03E-06
L11 44035U 19007B 19051.85327172 .00000103 00000-0 00000+0 0 9997
L22 44035 0.1265 282.7136 0004248 25.6732 197.1466 1.00271702 165

Live tracking and technical data element details for GSAT-31 (NORAD 44035). GSAT-31 can be tracked NOW for your location showing map with azimuth and elevation plus other details from your city location.

Track the satellite on the map from your city or location and see movement details for azimuth, elevation, latitude, longitude, range, height, and movement on the map or in text.







IsCatalogInMostPopularTable: catalog: 44035, numindb: 5
Update: records affected: 1



GetName: 44035 GSAT-31

Hit Count: updated at: Thu, 21 Feb 2019 12:45:51 GMT